LiveATC.Net - Listen to live air traffic control over the Internet!


ICAO: KEAU  IATA: EAU   Airport: Chippewa Valley Regional Airport
City: Eau Claire   State/Province: Wisconsin
Country: United States   Continent: North America
KEAU METAR Weather: KEAU 220256Z AUTO 12011G19KT 10SM OVC065 M09/M15 A3017 RMK AO2 SLP240 T10891150 58018
KEAU Flight Activity (FlightAware)
KEAU Airport Info   (AirNav) (iFlightPlanner)
KEAU VFR Sectional Chart   (iFlightPlanner) 
KEAU IFR Low Chart   (iFlightPlanner) 

KEAU Tower
Feed Status: UP   Listeners: 0
Listen in your browser - HTML5 player (in browser, HTML5)
Click here to listen with your own player (launches your MP3 player)
KEAU Tower Audio Archives
FacilityFrequency
Eau Claire Tower118.575

NOTICE

Unauthorized use prohibited. See LiveATC.net Terms of Service


Find LiveATC Audio Streams


Airport/ARTCC Code

Frequency Search
(e.g., 124.400, 128.75)
Site-wide search
 


Browse LiveATC Feeds
Top 50 LiveATC Feeds
LiveATC Feed Map
Bad Weather Areas

LiveATC FAQ
Offer LiveATC feed
Contact LiveATC.net
Press Inquiries

LiveATC on iPhone
LiveATC on Android

Windows Phone
Windows 8/10

LiveATC Mobile
(Mobile browser)

ATC Audio Archives
Interesting Recordings

LiveATC Forums


Home Page
About LiveATC.net
Make a Donation
Terms of Use
Privacy Policy

Canadian Air Freqs

AIRMETs/SIGMETs

FAA Airport Status
Nat'l Airspace Status
Arrival Demand Charts


Server Software By:
Icecast.org
Liquidsoap